GFSGBSN_sfc_temp_000.txt.gz
Temp
61 61 61 61 60 60 60 60 60 60 60 60 60 60 61 61 61 61 61 61 60 60 60 61 62 62 67 82 91 88 80 82 92 94 94 94 92 91 87 92 95 92 95 98 100 99 99
61 61 61 61 60 60 60 60 60 60 60 60 60 60 60 60 60 60 60 60 60 60 61 62 62 61 75 83 102 95 97 93 96 95 96 98 95 98 93 94 92 97 97 96 98 98 99
61 60 61 60 60 60 60 60 60 60 60 60 59 59 59 60 60 60 60 59 59 60 62 62 62 72 83 90 105 101 99 98 101 99 96 101 102 97 97 91 99 97 90 94 95 97 96
60 60 60 60 60 60 60 60 60 59 59 59 59 59 59 59 59 59 59 58 59 62 61 61 62 76 84 104 106 102 102 101 105 104 103 104 103 97 94 98 95 90 91 81 93 96 97
60 60 60 60 59 59 59 59 59 59 58 58 58 58 58 58 58 58 58 58 59 62 62 64 70 78 87 89 96 103 104 99 100 101 101 104 98 91 94 87 83 87 78 82 69 76 94
60 60 60 60 60 59 59 58 58 58 58 58 58 58 57 57 57 57 56 59 60 63 66 79 83 82 92 92 100 101 105 103 96 96 93 91 90 85 87 84 73 80 80 74 62 73 92
59 60 59 60 59 59 58 58 58 58 58 58 57 57 57 56 56 56 65 85 79 77 81 86 90 91 95 101 103 99 102 98 96 91 82 87 81 78 84 88 88 87 85 83 68 81 89
60 59 59 59 58 58 58 58 57 58 57 57 57 57 56 56 56 56 64 85 87 89 78 92 95 96 101 101 90 95 102 89 87 80 86 84 77 87 91 91 88 87 83 82 88 93 89
59 59 59 58 58 58 58 57 57 57 57 56 56 56 55 55 55 69 88 91 96 95 79 87 96 95 97 99 91 92 96 92 86 82 84 80 87 92 88 87 84 84 82 82 83 89 91
59 58 58 58 58 58 57 57 57 57 56 56 56 56 55 52 67 86 88 94 97 95 72 82 89 93 98 97 88 101 99 93 88 82 85 85 91 89 85 83 86 78 89 87 85 82 74
58 58 58 58 57 57 57 56 56 56 56 56 56 55 54 53 72 82 91 97 97 90 58 89 90 103 98 89 94 92 101 93 83 85 86 82 86 85 83 85 89 82 92 87 85 81 79
58 58 58 57 57 57 57 56 56 56 56 55 55 55 53 74 72 85 95 95 90 68 58 83 89 86 87 89 92 95 94 96 94 87 89 87 96 92 89 92 91 92 87 85 83 80 68
58 58 57 57 57 56 56 56 56 56 56 55 55 54 55 74 80 91 92 85 67 61 85 81 83 87 85 84 86 89 85 82 77 73 74 84 85 92 92 85 91 87 79 67 65 66 65
58 57 57 56 56 56 56 56 56 56 56 55 54 53 63 76 88 91 85 73 58 74 76 89 87 88 82 87 86 86 83 78 84 83 79 74 72 85 92 86 83 83 79 69 59 62 65
57 57 57 56 56 55 55 56 56 55 55 54 52 79 79 81 82 85 75 62 65 73 83 83 86 78 80 85 86 85 81 80 84 85 75 76 77 93 92 92 89 82 75 85 73 76 69
57 57 56 56 56 55 56 56 56 55 55 54 64 74 81 91 90 81 69 60 74 83 86 84 75 80 75 81 82 82 81 87 85 90 91 83 73 88 91 93 91 85 89 73 75 60 59
56 56 56 56 56 56 56 56 55 55 54 53 68 73 89 93 88 75 63 68 76 84 85 79 77 76 80 80 83 81 82 88 91 90 92 88 80 80 88 83 80 82 79 81 81 76 65
56 56 56 56 56 56 56 55 54 53 52 62 72 67 89 91 70 72 67 73 71 82 87 82 81 79 78 82 80 80 80 86 95 93 85 88 82 73 79 89 91 88 82 81 71 67 74
56 56 56 56 56 56 56 55 54 53 53 58 66 74 89 86 64 68 74 75 80 80 81 80 78 81 83 78 73 80 83 92 94 91 85 88 78 69 72 83 87 82 85 84 81 77 69
56 56 56 56 56 56 56 55 55 54 53 58 66 67 77 79 77 71 71 73 74 83 82 82 81 82 79 76 81 76 80 89 91 91 76 83 78 73 70 74 78 77 82 84 81 72 73
55 56 56 56 55 56 56 55 55 54 54 59 68 68 75 68 72 72 72 73 73 74 81 81 76 79 78 72 75 75 81 85 89 79 86 84 72 78 80 83 83 82 82 83 79 80 74
55 55 55 55 55 56 56 55 55 53 53 65 64 64 69 67 69 68 65 69 71 76 77 75 73 79 80 74 76 74 80 80 79 86 82 84 72 76 74 82 83 79 83 83 83 83 82
55 55 55 55 55 56 56 55 55 53 55 66 68 70 66 60 66 66 69 71 73 76 79 82 80 78 76 80 85 87 89 86 85 81 79 77 75 71 67 78 79 72 80 81 83 86 84
55 55 55 55 55 55 55 55 55 53 53 60 64 61 60 59 66 68 69 74 74 75 73 80 83 78 81 87 86 87 87 85 84 83 85 74 72 73 68 73 60 76 81 79 81 86 88
54 54 54 55 55 55 55 55 55 54 53 59 63 59 60 57 64 65 66 60 72 74 74 76 81 84 84 80 73 69 70 71 75 81 81 75 74 69 64 66 72 75 75 73 79 80 89
53 53 54 54 54 55 55 55 55 54 53 58 64 60 58 57 60 65 63 64 65 64 71 75 82 84 81 75 71 59 59 66 65 71 82 81 78 69 65 62 59 75 84 88 86 71 86
53 53 53 54 54 54 55 55 55 55 53 55 60 61 57 55 66 63 58 55 66 60 63 70 73 76 79 70 65 64 64 74 66 65 67 70 70 67 67 64 71 82 85 88 67 69 82
52 53 53 53 53 54 54 55 55 55 54 55 60 62 57 55 61 66 69 64 66 62 50 60 67 73 73 65 66 68 68 72 69 71 70 68 66 66 68 64 60 85 84 74 74 80 80
52 52 52 53 53 54 54 54 54 54 54 54 57 64 64 53 59 65 68 71 70 70 66 62 58 63 70 65 69 71 66 68 61 62 74 60 67 67 66 64 75 80 77 81 81 78 78

GFSGBSN_sfc_temp_003.txt.gz
Temp
61 61 61 61 60 60 60 60 60 60 60 60 60 60 60 61 61 61 61 61 60 60 61 61 61 62 61 68 81 84 80 80 85 86 87 86 83 80 76 81 85 83 87 91 91 90 90
61 61 61 60 60 60 60 60 60 60 60 60 60 59 60 60 60 60 60 60 60 59 61 62 62 61 64 72 91 86 87 84 89 86 86 87 86 88 82 82 81 87 89 89 88 91 92
61 60 60 60 60 60 60 60 60 60 59 59 59 59 59 59 60 60 60 59 59 59 61 62 61 66 73 79 94 89 86 84 90 88 86 92 93 84 85 80 89 88 80 85 84 86 86
60 60 60 60 60 60 59 59 59 59 59 59 59 59 59 59 59 59 59 58 59 59 62 61 61 65 68 96 92 95 88 89 92 91 91 94 94 86 82 87 85 80 77 66 80 83 85
60 60 60 60 60 59 59 59 59 59 58 58 58 58 58 58 58 58 57 58 59 60 62 63 61 63 73 89 91 94 93 90 92 93 90 100 90 80 81 73 68 71 61 66 71 85 82
60 60 60 60 59 59 59 58 58 58 58 58 58 57 57 57 57 57 56 59 61 60 62 71 75 68 80 86 93 95 95 97 90 88 87 83 77 70 70 65 57 66 66 67 66 78 81
60 60 59 59 59 59 58 58 58 58 58 57 57 57 57 57 57 56 57 64 65 66 65 72 75 81 91 95 99 93 95 92 89 82 70 77 65 61 69 75 78 78 75 71 73 82 77
60 59 59 59 58 58 58 57 57 57 57 57 57 57 56 56 56 57 54 68 75 76 66 82 86 87 93 95 87 91 95 82 79 70 76 70 63 75 83 84 80 77 73 71 77 79 74
59 59 58 58 58 57 57 57 57 57 57 57 56 56 55 55 55 60 74 78 85 81 65 77 85 85 87 90 86 85 89 85 77 72 73 67 74 85 82 79 77 73 69 72 72 80 78
59 59 58 58 57 57 57 57 57 57 56 56 56 56 55 52 61 71 75 85 85 83 56 71 78 86 90 89 82 96 93 86 79 74 76 73 83 82 79 78 77 64 80 81 79 70 60
59 58 57 57 57 57 57 56 56 56 56 56 56 55 54 52 59 67 78 84 83 75 46 83 83 96 89 84 84 87 95 86 76 77 75 71 78 77 76 78 82 72 82 78 77 67 62
58 57 57 57 57 57 56 56 56 56 56 56 56 55 54 62 59 70 80 82 75 55 48 77 84 81 78 81 85 88 87 88 87 79 79 79 88 84 81 85 84 85 78 72 69 63 51
57 57 57 57 56 56 56 56 56 56 56 55 55 54 52 64 64 75 77 71 52 49 76 74 74 79 76 76 79 82 78 74 67 60 62 74 78 84 86 76 79 77 61 50 48 49 49
57 57 57 57 56 56 56 56 56 56 55 55 54 53 57 64 71 75 70 57 45 66 67 79 79 79 73 78 78 80 75 70 75 72 64 61 60 77 85 76 71 69 64 52 44 46 54
57 57 57 56 56 56 56 56 56 55 55 54 53 64 66 69 69 68 60 48 54 64 76 76 77 71 71 79 78 77 74 72 76 74 62 60 65 85 87 85 79 69 59 69 57 56 53
57 57 56 56 56 56 56 56 55 55 54 54 52 61 68 79 77 67 55 51 62 75 77 76 66 71 66 72 71 70 71 79 78 83 79 70 60 76 86 86 81 73 74 58 56 46 44
56 56 56 56 56 56 55 55 55 54 54 53 55 61 76 83 77 61 51 57 68 76 78 72 69 68 69 69 71 71 72 80 84 83 82 76 64 69 76 70 70 68 63 61 60 56 48
56 56 56 56 55 55 55 55 54 53 52 56 60 56 80 83 59 59 56 64 63 72 77 75 75 71 68 70 67 69 72 78 87 86 75 77 65 58 67 80 83 76 69 64 54 54 55
56 56 56 56 55 55 55 55 54 53 53 49 53 62 80 79 54 58 63 68 71 71 72 73 72 74 73 67 60 69 74 85 87 82 72 68 61 53 59 67 73 70 73 68 63 59 54
55 56 55 55 55 55 55 55 54 54 53 51 55 56 66 70 68 62 60 63 66 77 74 77 74 73 68 65 67 65 72 83 86 79 73 74 63 59 56 61 68 67 73 73 63 54 56
55 55 55 55 55 55 55 55 55 54 54 52 58 58 61 56 61 61 62 64 63 64 74 76 68 70 67 58 62 64 72 75 82 76 75 70 58 60 67 73 77 76 75 77 67 65 59
55 55 55 55 55 55 55 55 55 53 53 55 55 54 59 57 60 60 59 60 64 68 69 68 66 72 71 60 64 63 68 64 65 74 66 69 59 61 62 74 75 74 77 77 79 76 70
55 55 55 55 55 55 55 55 55 53 53 56 59 59 55 54 57 58 60 63 67 69 72 75 73 70 68 71 73 72 72 71 68 63 64 63 60 57 53 67 69 61 70 73 71 72 68
54 54 54 55 55 55 55 55 55 53 52 52 56 54 51 50 57 60 64 65 65 65 64 72 74 67 73 79 77 75 74 71 73 71 68 63 60 57 53 58 48 65 71 77 73 75 70
54 54 54 54 55 55 55 55 55 54 53 51 57 53 50 47 56 59 59 59 63 62 63 67 75 72 74 70 61 58 59 60 66 70 68 67 61 55 51 51 61 69 71 70 68 67 74
53 53 53 54 54 54 55 55 55 54 53 52 55 57 52 47 53 58 57 60 56 54 59 66 68 73 72 62 59 49 49 55 56 62 68 66 62 58 54 46 48 62 74 82 77 57 73
53 53 53 53 54 54 55 55 55 55 53 51 53 57 52 47 56 57 55 54 62 59 56 59 59 63 70 57 53 52 54 63 55 54 54 57 55 54 54 52 60 72 78 81 58 55 68
52 52 53 53 53 54 54 54 55 55 54 52 51 57 51 47 51 58 62 56 57 57 51 57 56 56 60 54 54 55 54 58 58 60 59 55 53 52 54 51 49 73 76 65 62 65 65
52 52 52 53 53 53 54 54 54 54 54 53 50 58 57 47 49 57 58 61 62 63 55 57 51 53 55 55 56 57 56 55 55 49 61 51 52 51 54 52 59 64 67 70 70 65 64

GFSGBSN_sfc_temp_006.txt.gz
Temp
61 61 61 60 60 60 60 60 60 60 60 60 60 60 60 60 61 61 61 61 60 60 60 62 62 62 59 65 77 83 80 79 82 83 83 81 76 74 70 75 79 75 81 85 86 84 84
61 61 60 60 60 60 60 60 60 60 60 59 59 59 59 60 60 60 60 60 60 60 60 61 62 61 62 68 86 83 82 81 83 82 81 82 79 81 77 76 73 81 83 83 80 82 84
60 60 60 61 60 60 60 60 60 59 59 59 59 59 59 59 60 60 60 60 60 59 60 61 61 65 67 76 87 82 81 79 83 82 81 84 85 79 77 75 81 82 74 79 78 79 79
60 60 60 60 59 59 59 59 59 59 59 59 59 59 59 59 59 59 59 59 59 60 60 61 61 61 67 89 83 87 80 80 84 83 83 86 86 80 75 80 79 74 68 63 78 79 81
60 59 60 59 59 59 59 59 59 59 58 58 58 58 58 58 58 58 57 58 60 60 61 62 58 60 70 86 84 85 84 84 83 84 83 94 83 74 75 67 61 64 59 65 72 80 79
60 59 59 59 59 59 58 58 58 58 58 58 58 57 57 57 57 57 57 59 61 59 61 68 71 65 75 81 87 87 87 89 85 83 81 78 72 66 63 60 53 60 60 65 66 75 76
59 59 59 59 59 58 58 58 58 58 58 57 57 57 57 57 57 57 53 57 64 65 62 66 69 73 82 90 93 86 89 86 83 77 65 71 63 58 63 66 70 70 67 67 71 77 71
59 59 58 58 58 58 57 57 57 57 57 57 57 57 57 57 56 57 51 64 68 72 62 75 77 79 84 87 81 85 90 79 76 67 68 65 60 70 74 74 73 71 67 65 72 77 71
59 58 58 58 57 57 57 57 57 57 57 57 57 56 56 56 55 58 64 69 77 70 59 69 77 77 79 82 79 81 84 79 73 69 68 62 70 79 75 72 70 67 64 67 68 73 70
58 58 57 57 57 57 57 57 57 57 57 56 56 56 55 53 59 59 66 74 74 73 51 63 68 78 81 83 76 90 89 81 74 69 70 67 77 76 74 72 71 59 75 74 73 65 57
58 57 57 57 57 57 56 56 57 56 56 56 56 56 55 54 49 59 70 72 71 68 45 76 74 87 81 77 79 81 90 79 71 72 69 66 72 70 70 73 76 69 76 73 72 61 56
58 57 57 57 57 57 56 56 56 56 56 56 55 55 55 55 49 59 66 67 68 53 46 70 79 75 73 75 80 82 80 81 81 73 73 71 81 76 75 81 79 79 71 65 60 55 50
57 57 57 57 56 56 56 56 56 56 56 55 54 54 52 57 56 62 63 62 50 43 67 66 66 70 69 70 74 76 72 69 64 56 56 67 72 77 81 73 75 72 57 47 47 47 48
57 57 57 56 56 56 56 56 56 55 55 54 54 53 51 55 54 60 60 54 41 59 59 71 71 70 65 70 71 73 68 63 68 64 57 56 55 72 79 73 68 64 59 49 43 44 49
57 57 56 56 56 56 56 56 55 55 54 54 52 50 51 55 58 59 55 43 48 56 69 68 68 61 63 71 71 69 65 68 72 68 59 55 59 77 79 79 76 65 58 64 53 48 48
56 56 56 56 55 55 55 55 55 55 54 53 44 47 53 66 62 58 50 46 55 66 69 67 57 63 58 64 63 62 64 71 73 77 70 63 56 74 79 79 75 72 71 57 50 44 42
56 56 56 56 55 55 55 55 55 54 53 53 46 50 62 67 63 54 45 48 61 70 71 64 59 59 60 60 60 57 63 73 78 77 75 65 60 68 70 65 64 65 60 57 56 51 46
56 56 56 56 55 55 55 55 54 53 52 48 42 47 65 69 51 46 48 59 61 66 69 67 66 63 63 62 58 60 63 68 79 82 67 69 58 55 63 72 77 71 66 59 51 50 49
56 56 56 55 55 55 55 55 54 53 52 45 38 46 64 63 45 44 51 61 65 65 65 65 64 66 67 59 55 61 67 77 79 74 68 67 55 50 58 63 68 65 67 61 55 51 50
55 56 55 55 55 55 55 55 54 53 53 43 41 44 52 56 53 49 48 54 57 69 67 69 66 65 61 57 57 60 64 75 79 78 70 68 54 57 54 58 62 64 70 67 58 50 52
55 55 55 55 55 55 55 55 54 53 53 45 44 45 48 42 48 49 48 55 56 57 66 65 63 64 61 50 55 57 63 67 74 72 71 65 56 57 61 66 68 67 68 68 59 61 58
55 55 55 55 55 55 55 55 54 53 52 49 42 41 45 43 48 50 48 50 56 61 59 60 57 66 65 55 59 57 59 55 62 67 62 61 57 55 57 67 69 66 70 69 74 74 64
54 54 54 55 55 55 55 55 54 52 50 41 46 46 43 44 46 46 48 53 57 58 61 64 64 62 61 64 66 65 64 62 62 58 61 58 56 52 49 60 63 56 65 69 69 71 69
54 54 54 54 54 55 55 55 55 53 50 40 42 42 39 39 44 47 54 57 57 57 53 64 64 58 67 70 69 62 58 59 65 61 60 58 54 51 49 52 43 60 68 71 69 68 68
53 53 54 54 54 54 55 55 55 54 52 40 42 42 38 35 44 49 52 53 54 56 56 60 64 62 64 63 56 53 52 57 59 63 60 61 55 51 49 46 55 64 68 67 63 63 68
53 53 53 54 54 54 54 55 55 54 52 42 41 45 41 36 40 50 49 51 46 46 50 57 64 63 60 54 52 43 46 51 52 56 57 59 57 54 48 45 45 58 70 76 70 55 69
52 52 53 53 54 54 54 54 55 54 53 44 41 45 41 35 42 46 45 45 50 47 45 50 55 54 57 50 47 45 47 56 50 48 48 50 50 50 48 47 54 63 68 73 56 56 65
52 52 52 53 53 53 54 54 54 54 54 46 41 44 42 35 39 48 54 48 48 47 43 48 49 49 48 45 47 47 48 51 49 50 46 48 46 46 47 45 46 62 66 59 58 61 64
52 52 52 53 53 53 53 54 54 54 53 51 37 47 47 38 39 47 51 54 53 54 48 48 47 47 50 44 46 46 47 47 45 44 52 47 49 47 50 48 57 59 59 61 64 60 60

GFSGBSN_sfc_temp_009.txt.gz
Temp
61 60 60 61 60 60 60 60 60 60 60 60 60 60 60 60 61 61 61 61 61 60 60 61 61 61 58 63 75 79 80 78 79 80 80 78 73 71 67 71 75 71 75 79 82 80 79
60 60 61 60 60 60 60 60 60 59 59 59 59 59 59 60 60 60 60 60 60 60 60 61 61 61 61 66 83 81 80 79 80 78 79 79 77 77 72 72 70 76 77 78 79 81 80
60 60 60 59 59 59 59 59 59 59 59 59 59 59 59 59 59 60 60 60 60 60 60 61 61 63 64 74 84 80 79 77 79 78 78 80 81 74 73 73 77 77 72 75 77 77 77
60 60 60 59 59 59 59 59 59 59 59 59 58 59 59 59 59 59 59 59 59 60 60 61 61 59 65 83 79 81 75 76 79 75 79 82 80 74 71 76 74 70 64 61 74 75 77
59 59 59 59 59 59 58 58 58 58 58 58 58 58 58 58 58 58 57 58 61 61 61 62 57 59 68 79 80 81 80 81 80 78 79 90 78 70 71 64 59 60 57 60 68 76 75
59 59 59 59 59 58 58 58 58 58 58 58 57 57 57 57 58 57 57 58 60 59 61 65 69 64 74 78 82 83 82 85 80 77 77 74 68 62 61 57 52 56 59 63 63 70 71
59 59 59 59 58 58 58 57 57 57 57 57 57 57 57 57 57 57 53 56 63 63 60 65 67 70 77 85 87 81 85 83 79 74 64 67 61 56 61 63 65 65 63 62 69 74 70
59 58 58 58 58 57 57 57 57 57 57 57 57 57 57 56 56 56 52 64 62 66 60 72 73 74 80 81 76 80 86 75 72 65 67 63 57 65 70 69 67 65 61 61 68 74 69
58 58 58 57 57 57 57 57 57 57 57 57 56 56 56 55 55 58 60 64 69 62 57 66 71 72 74 78 74 76 82 76 70 66 65 60 67 74 71 68 66 62 60 62 65 68 66
58 58 58 57 57 57 57 57 57 57 56 56 56 56 55 53 59 55 63 67 66 64 50 62 65 74 76 78 72 85 84 78 70 66 67 64 72 72 67 67 67 57 70 69 68 61 56
58 57 57 57 57 57 57 56 56 56 56 56 55 55 55 54 49 57 68 62 65 67 44 71 69 81 72 75 76 76 84 77 69 69 66 64 67 66 67 69 71 66 71 69 66 58 54
57 57 57 57 57 57 56 56 56 56 55 55 55 55 54 53 48 57 61 61 65 52 45 66 74 70 69 70 76 76 77 79 76 69 67 67 74 71 71 76 74 76 68 61 55 52 48
57 57 57 57 56 56 56 56 56 55 55 55 54 53 51 55 56 58 59 62 49 43 65 64 63 65 62 66 70 72 69 66 62 54 53 63 67 72 77 67 70 65 55 47 46 45 46
57 57 57 56 56 55 55 55 55 55 55 54 53 53 52 53 51 57 59 55 40 56 55 67 67 64 63 65 66 68 64 61 65 61 54 53 54 66 73 69 66 62 58 48 41 42 47
56 56 56 56 55 55 55 55 55 55 54 53 52 46 47 52 55 55 55 43 46 52 64 64 64 59 59 65 66 66 62 62 66 64 58 51 55 72 74 74 72 61 56 59 49 44 47
56 56 56 56 55 55 55 55 55 54 54 53 43 44 49 58 58 56 50 44 49 61 65 62 54 59 54 60 59 58 60 67 67 70 65 59 54 66 74 74 71 67 67 55 49 43 39
56 56 56 55 55 55 55 55 54 54 53 51 46 50 59 57 59 54 44 45 55 65 66 60 55 56 57 58 57 54 59 68 71 71 69 59 56 65 68 62 63 62 57 53 52 48 45
55 56 55 55 55 55 55 54 54 53 52 46 40 49 60 59 49 43 46 54 57 60 63 62 61 61 57 59 56 57 59 65 73 71 62 62 54 53 60 68 72 65 62 56 50 49 45
55 56 55 55 55 55 55 54 54 53 52 46 38 41 58 60 43 42 49 57 59 58 59 58 60 63 62 56 53 59 62 72 72 68 62 62 53 51 56 59 64 61 61 55 52 49 46
55 55 55 55 55 55 55 54 54 53 52 42 42 45 50 51 46 46 46 52 55 66 62 64 63 62 59 55 56 56 59 70 72 72 68 66 51 55 56 56 60 60 63 62 55 49 48
55 55 55 55 55 55 55 55 54 53 52 45 43 41 43 41 46 44 44 52 55 56 61 60 57 58 55 49 52 55 58 62 69 69 65 61 53 54 56 63 65 65 65 63 59 57 55
54 54 54 55 55 55 55 55 54 53 51 45 40 40 41 40 43 45 45 45 52 54 54 55 53 59 57 52 56 56 55 52 58 64 60 57 54 52 54 64 64 63 66 66 66 65 59
54 54 54 54 54 55 55 55 54 52 48 40 41 42 41 43 42 43 43 49 53 54 57 59 59 55 56 58 59 63 61 61 61 54 56 55 52 50 47 56 59 54 62 65 64 67 66
53 53 54 54 54 55 55 55 55 52 48 38 39 39 38 39 41 44 51 53 53 54 51 59 59 53 61 65 63 59 56 56 60 59 57 54 50 48 48 50 42 58 65 68 66 65 65
53 53 53 54 54 54 54 55 55 53 52 39 39 39 37 34 40 45 48 49 51 51 52 57 61 61 60 55 54 51 51 52 57 64 57 57 51 47 47 45 52 60 64 63 60 60 63
53 53 53 53 54 54 54 54 54 54 52 40 39 41 39 35 38 46 44 47 43 42 47 54 60 58 56 51 50 41 44 49 50 53 52 54 53 52 46 44 44 54 64 68 66 54 64
53 52 53 53 53 53 53 54 54 54 52 41 39 40 38 34 38 41 42 43 46 43 42 46 52 51 52 45 46 44 45 52 48 48 47 47 47 48 46 45 52 58 61 64 52 54 61
52 52 52 53 53 53 53 53 54 54 54 44 39 40 39 33 36 44 50 45 46 44 41 46 47 48 46 43 43 43 44 47 46 47 44 46 45 44 44 44 45 60 62 59 56 59 60
52 52 52 53 53 53 53 54 54 54 54 49 36 42 42 36 37 43 47 51 51 50 45 44 44 45 47 42 42 42 44 45 43 42 50 45 48 45 47 47 55 59 60 59 61 59 57

GFSGBSN_sfc_temp_012.txt.gz
Temp
60 61 60 59 60 60 60 60 60 60 59 60 60 60 60 60 61 61 61 61 61 60 60 60 61 61 56 62 73 78 79 77 76 77 76 75 70 68 65 68 72 68 73 76 78 76 76
60 60 59 59 60 60 59 60 60 59 59 59 59 59 59 60 60 60 60 60 60 60 60 60 61 61 59 63 79 78 77 77 77 75 75 76 74 74 69 69 68 72 74 74 76 77 77
60 60 59 60 60 59 59 59 59 59 59 59 59 59 59 59 59 60 60 59 59 59 60 60 61 62 63 73 80 78 77 75 76 75 75 77 77 72 70 70 74 73 69 72 74 74 73
60 60 59 59 59 59 59 59 59 59 59 58 58 58 59 59 59 59 59 58 59 61 60 61 61 58 65 79 77 79 73 73 75 72 76 78 77 71 68 74 71 65 63 60 72 74 75
59 59 59 59 59 58 58 58 58 58 58 58 58 58 58 58 58 58 58 57 60 61 61 62 55 57 66 77 77 78 77 77 76 74 75 88 75 66 69 61 58 59 54 58 67 73 72
59 59 59 59 59 58 58 58 58 58 58 58 57 57 57 57 57 57 57 58 61 60 61 65 68 61 70 74 78 79 77 81 77 75 74 72 65 60 58 56 51 53 55 58 60 69 68
59 59 59 58 58 58 58 57 57 57 57 57 57 57 57 57 57 57 54 56 60 60 59 62 64 68 74 81 83 77 80 80 77 73 62 64 59 54 59 60 62 61 59 58 64 70 64
59 59 58 58 58 57 57 57 57 57 57 57 57 56 56 56 56 56 52 61 61 61 55 68 69 70 75 78 73 77 83 73 69 63 64 61 55 64 66 65 63 61 57 59 65 69 65
58 58 58 58 57 57 57 57 57 57 56 56 56 56 56 55 55 57 56 61 63 59 53 64 68 67 71 76 73 74 79 74 67 63 62 58 63 69 68 64 62 58 56 58 62 66 63
58 57 57 57 57 57 57 57 57 56 56 56 56 55 55 53 58 54 62 64 61 61 50 60 63 71 72 74 70 82 80 76 68 64 63 62 68 68 64 63 64 52 66 66 65 59 54
57 57 57 57 57 57 56 56 56 56 56 56 55 55 54 54 51 56 63 61 61 65 43 68 65 76 68 72 75 72 80 74 67 66 64 63 63 63 63 66 68 64 68 65 63 55 52
57 57 57 57 56 56 56 56 56 56 55 55 55 54 54 51 47 56 60 60 65 53 44 63 68 65 65 66 71 73 74 77 73 67 64 65 70 68 68 72 72 73 64 59 53 50 47
57 57 57 56 56 56 56 56 55 55 55 55 54 53 51 54 57 57 56 61 51 43 62 60 59 62 59 61 65 68 66 64 60 53 50 61 64 69 73 64 66 64 54 46 46 44 45
56 56 56 56 56 55 55 55 55 55 54 54 52 52 51 52 51 54 58 55 40 55 54 63 62 59 57 62 63 65 62 59 62 59 52 52 52 63 69 66 63 58 56 47 41 41 47
56 56 56 56 55 55 55 55 55 54 54 53 51 44 45 50 53 53 55 43 47 51 61 60 60 56 56 61 63 62 60 59 63 63 56 50 54 68 71 70 70 58 54 57 46 44 45
56 56 56 56 55 55 55 55 54 54 54 52 42 43 49 54 54 54 50 43 47 57 61 59 51 55 51 57 56 56 57 63 64 66 63 57 51 62 71 69 67 63 65 53 47 41 40
56 56 56 56 55 55 55 54 54 54 53 51 43 50 56 53 54 52 43 43 52 61 63 57 52 52 53 55 54 52 56 64 67 66 65 57 55 57 65 60 60 59 54 52 50 47 43
56 56 55 55 55 55 54 54 54 53 52 46 41 47 56 57 48 40 43 49 56 57 60 57 56 55 55 57 53 53 56 62 68 65 59 58 51 48 58 65 66 62 59 55 49 46 43
55 55 55 55 55 55 54 54 54 52 52 42 41 42 56 56 41 41 47 53 56 56 56 55 55 59 58 54 51 56 59 67 69 64 60 60 50 45 52 57 60 60 58 54 50 47 45
55 55 55 55 54 55 55 54 54 53 52 43 43 45 49 49 45 45 45 49 52 62 59 60 58 57 54 51 53 55 58 66 68 66 66 64 48 50 48 54 57 57 61 58 54 48 47
54 54 54 54 54 55 55 55 54 53 52 44 42 39 41 40 43 43 45 50 51 50 57 57 54 55 51 44 49 53 56 60 66 66 59 58 52 49 53 59 62 62 62 61 57 56 54
54 54 54 54 54 54 55 55 54 52 51 42 39 39 40 39 41 42 43 42 50 52 50 52 51 56 52 49 50 51 56 51 56 60 55 54 52 50 52 61 63 62 65 63 63 61 58
54 54 54 54 54 55 55 55 54 52 47 38 39 40 40 41 40 41 41 46 51 51 55 57 56 52 51 55 58 59 59 58 55 54 55 52 51 49 47 55 57 53 61 63 63 64 63
53 53 53 54 54 55 54 54 54 52 47 37 37 37 38 38 39 43 48 50 51 51 48 56 56 50 58 60 58 54 51 54 55 57 54 52 48 46 46 48 42 57 62 64 65 64 63
53 53 53 54 54 54 54 54 54 53 51 39 37 38 36 33 38 43 45 46 49 48 49 53 58 57 55 52 51 49 47 49 56 57 54 53 49 46 46 44 52 59 61 60 58 60 63
53 53 53 53 54 53 54 54 54 54 51 39 37 38 37 34 37 44 42 43 41 40 45 51 56 55 53 48 48 41 42 46 48 50 50 52 51 51 44 44 43 54 62 64 61 54 62
52 52 52 53 53 53 53 54 54 54 52 40 37 37 37 33 37 39 40 41 44 41 40 43 49 49 49 44 43 42 44 49 45 45 45 45 45 47 45 45 51 58 60 61 53 55 60
52 52 52 53 53 53 53 53 54 54 54 42 38 38 37 32 34 42 46 43 44 42 39 43 45 46 44 42 42 41 41 45 43 45 43 46 44 43 43 43 45 58 61 57 58 57 61
52 52 52 52 53 53 53 53 54 53 53 47 35 40 39 34 36 40 44 47 49 47 44 40 43 43 45 41 41 41 42 43 42 42 48 45 47 45 46 47 54 60 59 60 59 58 59

GFSGBSN_sfc_temp_015.txt.gz
Temp
61 60 60 60 60 60 60 60 60 60 60 60 60 60 60 61 61 61 61 61 61 60 60 60 61 61 63 77 83 84 79 79 83 86 86 84 83 81 79 81 82 80 83 86 88 86 85
60 60 60 60 60 60 60 60 60 59 59 59 59 59 59 60 60 60 60 60 60 60 60 60 61 61 68 77 86 84 84 84 86 86 86 86 84 84 81 81 80 83 83 84 87 86 86
60 60 60 60 60 59 59 59 59 59 59 59 59 59 59 59 60 60 60 60 59 60 60 61 61 64 72 82 87 86 87 86 86 88 85 87 88 85 84 81 84 83 81 84 85 86 85
59 60 60 60 59 59 59 59 59 59 59 59 58 59 59 59 59 59 59 59 59 61 60 61 61 66 76 84 86 84 86 85 86 88 88 89 89 85 83 84 83 79 80 77 84 85 84
59 59 59 59 59 59 59 59 59 58 58 58 58 58 58 58 58 58 58 57 60 62 62 62 66 70 78 79 81 87 88 86 85 86 88 90 88 81 82 78 77 76 74 73 78 83 84
59 59 59 59 59 58 58 58 58 58 58 57 57 57 57 57 57 57 57 58 61 63 65 67 70 72 79 80 85 85 87 88 86 85 84 83 81 79 77 77 69 71 71 72 72 80 82
59 59 59 59 58 58 58 58 57 57 57 57 57 57 57 57 56 56 60 68 75 74 72 76 76 76 80 86 89 85 88 87 86 83 76 76 75 72 75 74 74 72 71 70 76 80 76
58 58 58 58 58 58 58 57 57 57 57 57 57 56 56 56 56 56 61 73 70 71 68 73 73 75 80 84 80 83 90 82 80 74 75 75 71 76 75 73 72 71 70 73 78 78 77
58 58 58 58 57 57 57 57 57 57 56 56 56 56 55 55 55 64 66 71 71 71 67 72 75 75 79 83 80 81 86 81 77 73 73 71 74 74 75 73 71 72 71 71 72 77 77
58 58 58 57 57 57 57 57 57 56 56 56 55 55 55 53 63 62 71 70 70 71 65 70 73 79 79 82 79 87 89 85 76 74 71 73 77 74 72 71 75 70 75 75 74 73 70
57 57 57 57 57 57 56 56 56 56 55 55 55 55 54 54 60 65 70 69 72 72 55 73 74 84 80 79 82 79 88 84 75 73 74 72 73 71 71 74 77 73 77 74 73 73 70
57 57 57 57 57 56 56 55 55 55 55 55 55 54 54 57 57 65 67 69 75 63 53 69 76 74 75 79 79 80 82 86 82 75 74 75 79 78 78 79 79 80 74 71 69 71 65
57 57 57 56 56 56 55 55 55 55 55 54 54 53 53 58 68 64 66 73 62 55 69 66 69 73 73 73 75 76 75 74 72 65 66 71 74 78 80 75 77 76 72 66 62 62 63
56 57 56 56 56 55 55 55 55 55 54 54 52 52 54 58 62 63 71 68 50 61 62 70 69 70 69 73 74 72 72 69 73 72 67 66 66 73 77 77 74 73 74 66 55 60 65
56 56 56 56 55 55 55 55 54 54 54 53 51 57 58 63 61 62 69 57 59 59 64 65 68 66 67 71 72 73 72 72 75 75 68 65 66 76 77 79 80 70 69 73 64 60 64
56 56 56 55 55 55 55 55 54 54 53 52 50 58 62 62 62 69 65 52 59 63 66 67 62 65 63 66 69 71 69 74 74 76 80 71 65 75 78 81 77 76 76 68 68 56 55
55 56 55 55 55 55 55 54 54 53 52 51 55 62 63 63 65 67 59 57 60 67 68 65 63 63 64 64 67 67 68 73 75 73 77 75 70 71 75 74 73 72 72 68 70 66 63
55 55 55 55 55 55 55 54 54 53 51 51 55 57 66 66 61 55 58 58 57 66 69 68 67 65 65 65 66 67 68 71 76 76 71 74 70 64 70 75 77 76 73 72 68 60 63
55 55 55 55 55 55 55 54 53 52 51 48 54 57 66 66 55 55 57 61 64 65 65 66 65 67 68 65 63 66 68 75 76 75 72 71 66 63 66 72 73 73 72 71 67 67 61
55 55 54 54 55 54 55 55 53 52 52 53 56 56 61 60 57 56 55 58 60 67 65 67 66 68 65 63 65 63 68 73 75 75 66 72 65 66 66 69 73 69 70 70 72 67 66
55 54 54 54 54 55 55 55 54 53 52 54 54 50 51 54 55 55 56 57 57 58 64 65 63 62 61 60 62 63 66 70 75 69 71 73 65 65 70 70 72 74 73 70 70 72 71
55 54 54 54 54 55 54 54 54 52 51 53 53 53 53 53 50 54 52 53 56 58 60 60 61 62 61 60 62 61 62 66 68 73 70 66 66 64 67 69 71 71 75 73 73 71 71
54 54 54 54 54 54 54 55 53 52 50 51 50 51 51 47 51 54 54 55 56 58 62 64 61 61 60 62 64 66 66 66 66 62 66 66 66 64 64 66 69 64 72 73 75 76 77
53 53 53 54 54 54 54 54 54 52 48 48 47 48 52 51 53 54 54 55 56 56 56 61 63 60 64 67 67 64 62 62 63 64 66 64 62 63 65 64 56 71 74 76 75 76 77
53 53 53 53 54 53 54 54 54 53 50 50 48 49 49 50 50 51 52 54 56 57 56 58 63 64 66 64 63 60 62 63 66 68 65 66 65 63 60 62 65 69 71 71 73 73 75
53 53 53 53 53 53 54 54 54 53 50 51 48 47 50 49 51 50 52 53 55 55 57 58 64 64 64 64 61 54 54 60 59 62 64 64 63 65 59 58 55 70 70 70 70 69 73
52 52 52 53 54 53 53 54 54 54 50 50 49 46 50 47 52 50 52 54 56 53 55 55 58 59 61 62 58 57 58 61 58 58 58 60 60 61 62 60 65 69 68 70 64 68 72
52 52 52 53 53 54 54 53 53 54 53 51 49 48 48 46 49 50 53 53 55 55 54 55 56 57 59 56 57 59 57 59 58 58 59 60 59 59 60 58 56 66 69 66 65 68 69
52 52 52 52 53 53 54 53 53 53 54 50 47 50 49 46 49 48 53 55 56 57 56 54 53 53 56 56 56 56 56 58 53 55 59 57 61 63 61 65 62 66 66 67 65 63 69

GFSGBSN_sfc_temp_021.txt.gz
Temp
61 62 61 61 60 60 61 60 60 60 60 60 60 61 61 61 61 62 62 62 61 61 61 62 62 63 77 92 94 94 80 83 98 103 100 99 98 98 93 96 96 94 96 98 100 101 100
61 61 61 61 60 60 60 60 60 60 60 60 60 60 60 60 61 61 61 60 60 60 61 62 63 61 87 88 103 100 102 101 103 102 100 102 99 100 97 95 94 98 96 98 101 99 100
60 61 61 60 60 60 60 60 60 60 60 60 59 59 59 60 60 60 60 60 60 60 62 63 63 80 91 94 104 105 104 104 104 105 99 102 102 99 99 95 99 98 92 98 99 99 98
60 60 60 60 60 60 60 60 59 59 59 59 59 59 59 59 59 59 59 58 60 62 64 63 64 87 92 102 107 101 105 102 105 106 105 104 104 101 98 101 97 93 95 88 98 97 98
60 60 60 60 60 59 59 59 59 59 58 58 58 58 58 58 58 58 58 58 61 65 64 66 81 91 92 87 98 105 106 100 102 103 103 103 103 99 99 92 90 93 85 88 90 97 95
59 59 59 60 59 59 59 58 58 58 58 58 58 58 57 57 58 57 57 58 65 65 71 87 91 87 95 94 102 103 105 103 99 99 96 96 97 93 95 92 81 85 87 89 85 94 94
60 60 59 59 59 58 58 58 58 58 58 58 57 57 57 57 57 57 66 84 84 82 89 92 93 93 94 100 102 99 103 99 99 95 88 93 89 86 91 93 91 89 86 85 90 94 89
59 59 59 58 58 58 58 57 57 57 57 57 57 57 56 56 56 56 69 90 88 88 83 97 97 95 97 101 92 98 104 93 91 86 92 88 85 93 91 90 88 88 85 85 90 93 90
58 58 58 58 58 57 57 57 57 57 57 56 56 56 56 55 55 68 90 90 95 95 84 93 95 94 96 98 93 94 99 96 90 87 88 85 89 91 88 88 85 87 85 85 84 90 94
58 58 58 58 58 57 57 56 56 56 56 56 56 56 55 53 65 90 88 92 97 94 78 85 87 93 98 97 90 102 102 97 91 87 89 89 94 87 87 86 88 83 90 87 86 84 80
58 58 58 57 57 57 56 56 56 56 56 56 55 55 54 53 74 86 89 96 95 91 65 88 89 101 99 92 96 94 103 97 87 87 87 85 87 85 83 86 90 85 90 87 87 84 84
58 58 57 57 57 56 56 56 56 56 55 55 55 55 54 73 79 90 94 94 90 72 64 81 89 87 88 91 92 95 94 99 97 89 89 89 94 91 90 91 91 92 87 87 87 86 75
57 57 57 57 57 56 56 55 55 55 55 55 54 53 57 77 85 92 93 87 72 67 86 81 83 89 87 86 88 87 86 84 82 76 78 85 87 92 92 86 91 89 83 73 72 73 71
57 57 57 56 56 56 55 55 55 55 55 54 53 52 62 78 88 88 86 77 63 79 81 86 86 88 83 88 88 86 84 81 88 87 84 78 76 88 92 88 85 85 83 75 63 68 69
56 56 56 56 56 55 55 55 55 55 54 53 51 78 81 86 87 87 80 68 72 80 83 81 82 80 82 87 87 85 84 84 88 89 78 80 78 91 90 93 91 85 79 90 78 80 76
56 56 56 55 55 55 56 55 55 54 54 53 69 81 85 87 87 83 75 66 80 83 81 82 76 82 77 81 81 83 82 89 88 92 93 86 76 89 89 92 92 87 92 78 80 65 63
56 56 56 55 55 56 55 55 54 54 53 52 71 77 81 89 88 79 70 76 82 84 83 79 78 79 82 81 83 83 83 87 92 91 93 90 82 82 87 83 83 84 81 83 85 80 67
56 56 55 56 55 55 55 55 54 53 52 58 78 73 85 88 73 78 75 81 64 82 84 83 81 80 80 81 80 81 82 87 92 93 85 90 85 76 81 92 93 90 85 84 75 71 78
56 55 55 55 55 55 55 55 54 53 52 64 75 80 86 85 70 76 80 79 79 81 81 81 81 82 82 77 74 82 83 89 89 89 86 89 80 72 75 85 89 83 87 87 85 81 72
55 56 55 55 55 55 55 55 54 53 53 61 74 70 77 79 82 73 75 72 73 82 82 83 82 82 79 78 81 78 81 84 87 90 72 81 81 76 74 72 81 78 83 86 83 75 76
55 55 55 55 55 55 55 55 54 53 53 63 78 74 74 69 74 75 76 75 74 72 80 81 78 78 78 74 77 75 83 84 86 73 83 85 73 80 82 85 86 84 83 85 81 82 76
55 55 55 55 55 55 55 55 54 53 52 70 69 71 78 77 71 72 64 71 72 77 76 74 74 80 80 74 77 76 82 81 81 86 84 85 73 78 77 84 85 81 84 84 85 84 84
55 55 54 54 55 55 55 55 54 52 55 75 75 78 73 63 71 70 73 73 73 77 77 80 80 80 76 78 84 84 84 82 82 79 79 79 76 73 69 80 81 74 81 83 85 88 86
54 54 54 54 55 55 55 55 54 53 53 67 70 70 70 69 72 73 73 73 72 72 71 78 77 75 77 83 83 84 85 84 83 81 83 74 73 74 71 74 63 81 91 90 86 88 90
54 54 54 54 55 55 55 55 55 54 53 66 71 69 69 67 76 72 70 71 74 72 70 72 77 79 81 79 73 69 72 72 77 81 80 81 74 71 67 67 75 81 85 85 83 82 92
53 53 54 54 54 55 55 55 55 54 53 64 70 69 69 66 70 71 71 72 70 71 72 73 79 80 78 76 72 61 62 68 68 73 82 80 76 71 70 63 60 78 88 92 89 74 91
53 53 53 53 54 54 55 55 55 55 53 58 70 67 67 65 74 70 69 69 74 73 72 75 75 73 78 69 67 67 68 76 68 67 68 71 70 66 67 65 71 84 87 89 71 74 85
53 53 53 53 53 54 54 54 55 55 54 57 69 67 64 66 72 70 71 69 72 71 68 72 72 72 73 65 67 70 70 74 72 74 72 68 65 66 68 65 61 85 84 76 75 81 82
53 53 53 53 53 54 54 54 54 54 54 55 67 73 71 62 69 71 72 74 72 72 69 74 70 70 78 71 72 74 71 74 68 64 77 67 75 72 73 73 78 82 79 79 81 80 80

GFSGBSN_sfc_temp_024.txt.gz
Temp
62 62 61 61 61 61 61 61 61 60 60 61 61 60 61 61 61 61 61 61 61 61 61 62 63 63 75 88 95 95 81 84 96 99 101 100 98 97 93 97 98 95 97 99 101 101 100
61 62 61 61 61 60 60 60 60 60 60 60 60 60 60 60 60 60 60 60 60 60 61 63 64 62 83 87 106 102 102 99 101 103 103 102 101 102 96 96 95 99 98 98 100 100 100
61 61 61 61 60 60 60 60 60 60 59 59 59 59 59 59 60 60 60 60 60 61 62 64 65 78 89 93 108 106 106 105 106 105 102 104 104 99 100 94 101 98 92 96 98 100 97
61 60 61 60 60 60 60 60 59 59 59 59 59 59 59 59 59 59 59 59 60 62 64 66 65 83 88 106 109 105 107 104 107 108 106 106 105 100 98 101 97 92 93 85 97 99 99
60 60 60 60 60 59 59 59 59 59 58 58 58 58 58 58 58 58 58 58 60 64 66 67 80 86 90 92 99 105 107 102 104 105 105 106 102 96 99 90 87 90 82 86 88 98 96
60 60 60 60 59 59 59 58 58 58 58 58 58 57 57 57 57 57 57 58 68 65 72 84 90 86 95 94 103 105 108 105 100 100 98 96 95 90 92 89 77 82 85 88 86 94 94
59 59 59 59 59 58 58 58 58 58 58 57 57 57 57 57 57 56 64 89 85 81 86 89 92 93 97 103 106 101 105 100 101 96 87 94 87 83 89 93 91 88 86 85 90 95 90
59 59 59 59 58 58 57 57 57 57 57 57 57 57 57 56 56 56 64 85 90 91 81 96 96 98 100 102 93 98 105 93 91 85 91 89 82 92 95 92 89 88 85 84 91 95 90
59 58 58 58 58 57 57 57 57 57 57 56 56 56 56 55 55 68 86 92 99 99 82 91 98 96 97 99 92 95 99 95 90 86 88 84 90 94 90 88 86 87 84 85 85 91 93
58 58 58 58 58 57 57 56 56 56 56 56 56 56 55 53 65 88 89 96 100 99 75 85 91 95 99 98 90 104 103 96 92 86 89 88 95 89 88 86 89 81 92 88 86 83 76
58 58 58 57 57 57 56 56 56 56 56 56 56 55 55 53 70 83 91 99 98 93 61 90 91 106 101 92 96 96 104 97 87 88 90 85 88 86 84 87 91 85 92 88 87 82 81
58 57 57 57 57 56 56 56 56 56 56 55 55 55 54 73 72 84 96 96 91 70 61 83 90 88 90 91 94 97 95 99 98 90 91 89 96 93 90 93 92 94 88 86 86 83 71
57 57 57 57 56 56 56 56 55 55 55 55 54 54 55 74 83 95 94 85 67 63 86 82 83 89 87 86 88 90 87 84 81 75 76 86 88 93 94 87 91 89 82 70 69 70 68
57 57 56 56 56 56 56 55 55 55 55 54 53 53 64 77 90 92 87 76 60 75 79 91 89 88 82 88 87 88 85 81 87 86 82 76 74 88 93 87 84 84 82 72 60 65 65
57 56 57 56 56 56 55 55 55 55 54 54 52 79 79 86 85 88 78 65 68 77 87 85 86 81 82 87 87 86 83 83 87 88 77 79 79 94 94 94 91 83 77 88 76 78 72
57 57 56 56 56 55 55 55 55 55 54 53 63 80 86 92 89 82 72 63 77 87 86 85 77 81 77 83 82 84 82 88 87 93 93 85 75 89 91 93 92 87 91 76 78 63 61
57 56 56 56 55 55 55 55 55 54 53 53 68 75 86 93 88 75 63 70 78 88 85 81 79 80 83 82 84 82 82 89 93 92 94 89 82 82 88 82 81 83 80 82 81 77 66
56 56 56 56 55 55 55 55 54 53 52 60 73 69 86 91 71 74 68 75 74 85 87 84 84 83 81 84 83 82 82 87 95 95 86 90 84 75 81 91 93 89 84 83 73 69 75
56 56 56 55 55 55 55 55 54 53 52 59 69 77 87 85 65 70 76 79 83 83 82 82 81 84 85 79 75 81 84 90 93 91 80 86 79 71 74 83 89 84 86 85 83 79 70
55 56 55 55 55 55 55 55 54 54 53 58 71 70 75 77 78 72 72 75 78 84 83 85 83 86 82 77 80 77 82 87 89 88 75 82 80 75 71 74 77 77 82 84 81 73 74
55 55 55 55 55 55 55 55 55 54 53 60 72 74 77 69 71 73 75 77 75 75 82 84 80 81 78 74 76 75 82 86 87 77 85 84 72 77 80 83 84 83 82 84 80 81 74
55 55 55 55 55 55 55 55 55 54 52 67 70 70 74 75 75 74 68 72 74 78 79 76 75 81 81 75 78 77 80 81 80 86 81 84 72 76 73 81 83 80 84 84 84 84 83
55 55 55 55 55 55 55 55 55 53 55 73 75 77 73 66 73 70 71 72 73 78 82 83 80 79 79 80 85 84 85 84 82 77 78 76 75 71 66 78 79 72 80 83 84 86 85
54 54 54 55 55 55 55 55 55 54 53 62 71 70 68 67 73 73 75 77 76 77 75 80 80 77 78 86 86 85 84 82 83 81 82 73 72 72 68 72 60 78 87 88 82 87 89
54 54 54 54 55 55 55 55 55 54 53 61 70 69 68 65 74 75 74 74 76 75 74 75 79 80 82 80 74 68 70 72 75 80 79 80 73 68 64 65 72 79 78 79 80 81 80
54 54 54 54 54 55 55 55 55 55 53 61 69 71 68 65 68 73 72 74 71 72 72 75 83 82 79 73 71 60 60 67 66 71 81 80 76 70 67 61 59 75 86 90 88 74 81
54 54 54 54 54 55 55 55 55 55 54 57 66 70 67 64 74 71 69 67 76 74 72 76 76 74 77 69 65 64 65 74 66 66 68 70 70 65 65 62 69 82 88 77 53 67 83
54 54 54 53 54 54 55 55 55 55 54 56 65 71 66 64 71 73 74 69 72 73 68 70 74 72 71 62 64 67 68 73 71 73 72 69 65 65 67 62 59 87 85 72 73 81 82
54 54 53 53 53 54 55 55 55 54 54 54 64 75 73 64 68 75 76 77 75 74 69 72 71 70 74 70 71 71 67 72 70 65 78 67 73 70 71 70 79 82 77 79 80 80 81

GFSGBSN_sfc_temp_027.txt.gz
Temp
62 61 61 61 60 60 60 60 60 60 60 60 60 60 60 60 61 61 61 61 61 60 61 61 63 63 65 72 85 90 82 82 88 91 90 91 88 86 80 87 90 85 87 89 93 92 92
61 61 61 60 60 60 60 60 60 60 60 60 59 59 59 60 60 60 60 60 60 60 61 62 64 62 69 75 96 93 89 90 91 91 93 95 91 92 86 87 84 90 90 90 92 93 93
61 60 61 60 60 60 60 60 60 59 59 59 59 59 59 59 59 60 60 60 60 60 61 63 65 73 77 82 99 94 89 92 94 95 92 98 96 88 87 83 93 90 80 86 88 90 87
61 60 60 60 60 59 59 59 59 59 59 59 59 59 59 59 59 59 59 59 60 61 62 65 66 71 74 97 91 99 95 94 97 96 96 97 95 88 83 89 88 81 77 70 83 90 89
60 60 60 59 59 59 59 58 58 58 58 58 58 58 58 58 58 58 57 58 60 62 65 66 67 68 76 92 93 96 97 95 96 95 94 104 89 81 84 75 69 73 65 72 78 89 86
59 59 60 59 59 59 58 58 58 58 58 58 57 57 57 57 57 57 56 59 65 64 68 78 83 72 83 88 95 98 98 99 93 92 91 88 81 72 73 67 59 67 68 74 73 83 85
59 59 59 59 59 58 58 57 57 57 57 57 57 57 57 57 57 56 56 68 70 69 69 75 77 84 92 96 100 95 99 93 93 86 74 81 70 66 74 78 79 79 76 74 79 87 80
59 59 59 58 58 58 57 57 57 57 57 57 57 56 56 56 56 56 54 67 78 80 70 86 89 90 96 97 88 93 98 84 83 74 79 74 68 80 87 85 81 78 74 72 80 86 79
59 58 58 58 58 57 57 57 57 57 57 56 56 56 56 56 55 57 70 79 89 85 67 81 88 88 90 90 88 88 92 88 82 77 77 70 79 90 87 81 79 73 70 74 73 81 80
58 58 58 57 57 57 57 56 57 56 56 56 56 56 55 53 60 70 76 86 88 87 58 74 79 88 92 91 84 98 97 90 84 77 79 77 87 87 81 80 78 65 83 83 80 71 60
58 58 57 57 57 57 56 56 56 56 56 56 56 55 54 53 55 67 79 87 86 77 48 83 84 98 90 85 87 89 99 89 79 80 77 75 80 79 78 81 84 75 85 80 78 68 63
57 57 57 57 57 56 56 56 56 56 56 55 55 55 54 61 57 68 80 85 77 57 51 79 85 82 80 83 86 91 89 90 90 82 82 80 90 84 83 88 86 87 79 75 70 63 53
57 57 57 57 56 56 56 56 56 55 55 55 54 54 52 64 68 77 82 73 54 50 77 74 74 80 77 77 81 84 81 75 69 61 63 76 80 83 88 78 81 76 63 52 50 51 52
57 57 56 56 56 56 55 56 55 55 55 54 53 52 56 65 74 77 72 59 47 68 69 81 81 80 74 78 78 81 77 70 77 74 66 62 62 79 86 77 71 70 66 53 46 48 55
57 57 56 56 56 55 55 55 55 55 54 54 52 63 65 71 70 72 62 50 56 68 80 79 79 74 72 79 79 77 74 74 78 78 63 62 67 88 88 87 80 69 61 71 58 57 55
56 56 56 56 55 55 55 55 55 55 54 53 53 63 72 80 79 69 57 53 65 79 82 79 69 75 68 75 74 72 71 79 80 84 79 71 63 79 87 84 81 70 74 60 57 47 46
56 56 56 56 55 55 55 55 55 54 53 53 57 62 77 84 77 62 53 59 70 80 81 75 70 70 72 73 75 72 74 82 85 84 83 74 66 70 80 70 69 69 64 63 61 57 50
56 56 56 56 55 55 55 55 54 53 52 58 63 59 79 81 58 60 56 65 67 76 81 76 77 74 71 73 69 72 74 77 88 88 74 77 66 59 68 79 84 77 71 65 54 54 56
56 56 56 55 55 55 55 55 54 53 52 49 56 66 77 75 53 58 64 71 74 74 75 74 74 77 76 70 63 72 77 83 85 78 68 71 61 55 61 69 75 69 72 67 64 58 54
56 56 56 55 55 55 55 55 54 54 53 51 57 57 64 65 67 61 60 64 68 80 79 79 76 77 72 69 68 67 72 83 84 80 74 73 65 60 56 61 67 65 73 74 63 54 56
56 55 55 55 55 55 56 55 55 54 54 52 61 62 65 57 61 63 63 66 66 69 77 75 70 73 69 60 66 65 71 75 80 73 76 70 59 62 68 74 75 74 76 77 67 66 59
55 55 55 55 55 55 56 55 55 54 53 57 59 59 63 61 65 65 61 62 68 72 72 70 67 75 71 61 64 63 67 64 64 72 69 69 58 61 63 73 74 72 76 76 76 75 71
55 55 55 55 55 55 56 56 55 53 54 59 65 65 61 59 62 62 63 66 70 72 74 78 76 70 68 69 73 73 72 70 66 63 64 64 60 58 55 69 68 59 69 70 70 74 70
55 54 54 55 55 55 56 56 55 54 52 53 59 61 57 56 62 65 71 73 72 71 67 75 75 66 70 78 76 74 71 71 73 68 70 61 59 57 54 59 47 65 76 76 73 71 68
55 54 54 54 55 55 55 56 55 54 53 52 59 59 57 53 62 65 67 72 73 69 69 72 73 71 73 70 61 59 58 59 65 70 65 67 60 54 50 51 61 68 72 71 66 61 68
55 54 54 54 54 55 55 55 55 54 53 54 57 61 57 55 59 67 63 65 62 63 66 70 75 73 71 62 58 50 50 56 57 61 66 65 63 56 52 47 47 62 71 78 75 52 60
55 54 54 54 54 54 55 56 56 55 53 52 56 60 57 53 64 64 60 59 66 62 60 65 67 65 70 57 54 52 54 63 55 55 55 56 55 53 52 50 58 70 78 72 55 55 62
54 54 54 54 54 54 54 55 55 55 54 52 54 60 58 54 59 66 68 61 62 61 53 59 62 63 60 53 54 55 55 59 59 61 58 56 52 52 52 49 49 74 73 61 60 62 67
54 54 54 54 54 54 54 54 55 54 54 54 55 63 66 57 57 66 68 70 69 67 59 60 59 58 61 57 57 57 56 58 56 52 65 57 60 56 58 55 65 69 66 67 68 66 70

GFSGBSN_sfc_temp_030.txt.gz
Temp
62 61 61 60 60 60 60 60 60 60 60 60 60 60 60 60 60 61 61 61 61 60 61 61 62 63 61 70 81 87 82 81 84 86 85 84 82 79 74 79 83 78 84 85 88 86 87
61 61 61 60 60 60 60 60 60 59 59 59 59 59 59 59 60 60 60 60 60 60 61 62 63 63 66 69 91 88 88 84 86 84 85 85 86 85 80 80 77 85 84 84 85 87 88
61 60 60 60 60 59 59 59 59 59 59 59 59 59 59 59 59 60 60 59 59 60 61 62 64 70 70 79 92 88 86 84 87 85 86 90 89 84 82 79 85 84 76 82 85 85 85
60 60 59 60 59 59 59 59 59 59 58 58 58 58 58 59 59 59 59 58 59 61 62 63 65 66 70 90 88 90 84 87 89 87 88 91 89 82 77 83 81 77 72 66 81 83 87
60 60 60 60 59 59 58 58 58 58 58 58 58 58 58 58 58 58 57 58 61 63 64 65 62 65 73 89 89 89 90 88 88 89 89 99 85 75 79 70 65 66 62 66 74 84 85
59 59 59 59 59 58 58 58 58 58 58 57 57 57 57 57 57 57 57 58 62 64 66 74 78 67 79 84 89 92 92 92 88 85 85 81 75 68 66 63 56 62 64 68 69 81 80
59 59 59 59 58 58 57 57 57 57 57 57 57 57 57 57 57 56 53 61 69 69 67 68 72 76 85 92 94 89 93 88 86 80 68 74 68 62 68 70 74 73 69 67 73 83 77
59 59 59 58 58 57 57 57 57 57 57 57 57 56 56 56 56 56 50 63 70 72 65 78 80 81 87 89 83 87 93 81 76 70 72 68 64 74 79 79 76 73 68 69 74 82 75
58 58 58 58 57 57 57 57 57 57 56 56 56 56 56 55 55 56 61 70 78 71 61 72 79 79 82 84 82 83 86 81 75 71 71 66 74 83 81 77 75 66 65 69 70 75 72
58 57 57 57 57 57 57 57 56 56 56 56 56 56 55 53 59 57 65 74 74 74 53 65 71 81 84 85 79 92 89 84 77 73 75 72 81 81 78 75 74 60 75 77 74 66 59
57 57 57 57 57 57 56 56 56 56 56 56 55 55 55 54 48 59 72 73 73 71 45 77 74 88 83 80 80 83 92 83 76 77 75 72 76 74 74 77 78 72 78 74 73 63 59
57 57 57 57 57 56 56 56 56 55 55 55 55 55 54 53 48 58 66 69 69 54 47 71 80 76 74 75 81 85 84 86 86 77 76 75 84 80 79 83 80 80 73 67 61 57 51
57 57 57 57 56 56 56 55 55 55 55 55 54 54 51 57 59 62 66 64 52 45 68 67 68 73 70 71 76 77 77 74 68 61 61 71 75 80 83 73 76 73 58 49 49 48 49
57 57 56 56 56 55 55 55 55 55 55 54 53 52 50 55 54 61 62 57 43 61 62 72 72 68 68 70 71 74 72 67 70 68 61 59 60 74 80 74 69 65 61 50 44 45 52
57 57 56 56 55 55 55 55 55 55 54 54 52 50 51 57 58 59 57 45 50 59 72 71 70 65 65 71 72 70 68 67 73 70 61 58 62 79 82 82 77 65 59 64 55 48 50
56 56 56 56 55 55 55 55 55 54 54 53 44 49 55 67 63 59 52 47 55 70 73 69 59 65 61 68 65 63 65 72 74 77 72 65 59 71 81 82 76 71 72 58 52 45 43
56 56 56 55 55 55 55 55 54 54 53 53 48 53 64 68 64 55 47 49 61 73 74 66 63 64 66 64 65 61 66 75 78 78 72 65 61 68 73 66 67 67 61 58 56 52 48
56 56 56 55 55 55 55 55 54 53 52 48 44 51 68 68 52 47 48 57 62 68 71 68 70 68 67 69 64 63 66 72 80 81 70 69 60 57 64 76 77 68 64 58 52 52 50
56 56 55 55 55 55 55 55 54 53 52 44 43 50 66 66 46 45 53 62 65 65 66 66 67 69 68 65 61 66 69 78 79 75 70 68 56 52 60 65 70 65 66 60 55 51 52
56 55 55 55 55 55 55 55 54 53 53 43 44 48 56 57 52 49 48 56 59 72 70 71 69 69 65 63 64 62 68 76 78 76 70 68 56 57 53 57 62 61 68 68 58 52 52
55 55 55 55 55 55 55 55 54 54 53 46 46 51 52 47 52 52 51 57 57 58 69 69 63 65 61 54 59 59 65 68 74 72 70 65 57 58 60 67 67 66 68 69 63 61 57
55 55 55 55 55 55 55 55 54 53 52 48 47 48 51 49 54 55 52 55 60 63 63 66 65 69 62 55 56 57 60 59 58 66 63 61 57 56 58 70 68 66 70 69 68 68 63
55 55 55 55 55 55 56 55 54 53 50 44 49 51 50 49 51 52 57 61 64 64 67 68 67 62 60 63 65 65 62 62 59 58 59 57 56 53 50 64 63 57 65 66 65 64 61
55 55 54 55 55 55 56 55 55 53 51 41 44 45 45 46 50 52 60 63 67 65 63 67 65 60 66 71 70 67 64 67 67 63 63 59 55 54 51 57 44 61 71 68 62 61 62
55 54 54 54 55 55 55 56 55 54 53 42 45 46 44 41 51 56 59 60 63 60 63 64 68 67 66 65 57 53 54 56 62 64 62 64 54 50 48 45 55 64 70 66 61 55 60
55 54 54 54 54 55 55 56 55 54 53 43 44 47 45 41 47 56 54 56 50 50 56 62 68 67 66 56 53 44 45 51 53 58 58 60 56 53 47 45 45 58 70 72 67 51 62
54 54 54 54 54 54 55 55 55 55 53 45 42 47 45 40 48 52 50 50 55 52 52 54 59 62 62 50 48 47 48 56 50 50 50 50 49 50 46 45 52 64 72 70 52 55 63
54 54 54 54 54 54 54 55 55 55 54 48 44 47 47 41 45 55 58 50 53 52 49 55 56 55 55 50 48 48 48 52 50 53 52 52 48 46 45 44 45 67 66 58 58 59 62
54 54 54 53 54 54 54 54 54 54 54 52 41 50 53 45 47 54 60 61 60 60 54 51 50 49 53 52 51 50 51 52 48 47 55 50 55 52 52 50 57 58 58 59 62 61 63

GFSGBSN_sfc_temp_033.txt.gz
Temp
61 61 61 60 60 60 59 59 59 59 59 59 59 59 60 60 60 61 61 61 60 60 61 61 62 63 61 68 79 84 81 80 81 83 82 81 78 76 72 75 79 76 80 82 84 81 83
60 60 60 60 60 59 59 59 59 59 59 59 59 59 59 59 60 60 60 60 60 60 61 61 62 63 64 67 88 85 84 82 83 81 81 81 81 82 76 76 74 81 82 82 82 84 84
60 60 60 60 59 59 59 59 59 59 59 59 59 59 59 59 59 59 59 59 59 60 61 62 63 67 67 77 88 84 80 80 83 82 81 86 84 80 77 75 80 79 74 79 79 78 79
60 60 59 60 59 59 58 58 59 58 58 58 58 58 58 58 58 59 58 58 59 61 62 63 64 63 67 86 83 85 79 84 83 82 83 87 84 79 75 80 77 72 68 65 79 79 81
60 59 60 59 59 58 58 58 58 58 58 57 57 57 57 57 57 57 57 57 60 63 64 65 60 63 70 85 82 85 84 84 85 85 83 95 83 72 76 67 64 64 60 64 71 79 79
59 59 59 59 59 58 58 57 57 57 57 57 57 57 57 57 57 56 56 58 61 62 65 71 75 64 75 80 86 87 86 86 83 82 82 79 70 65 63 63 56 60 61 64 66 76 76
59 59 59 59 58 57 57 57 57 57 57 57 57 57 56 56 56 56 53 62 68 66 65 67 68 72 78 86 88 85 89 85 81 78 65 70 65 59 64 67 70 68 65 64 71 78 74
58 58 58 58 57 57 57 57 57 57 57 57 56 56 56 56 55 55 50 64 65 63 61 74 75 76 81 83 77 83 90 77 74 66 68 66 60 70 73 73 71 68 65 66 71 76 71
57 58 57 57 57 57 57 56 56 56 56 56 56 56 55 55 55 56 58 64 69 62 58 68 74 74 77 80 77 79 85 80 72 67 67 62 70 78 76 72 71 65 62 65 66 71 71
57 57 57 57 57 57 56 56 56 56 56 56 56 55 55 53 58 54 62 68 66 65 52 63 67 76 79 82 75 88 87 83 74 70 70 68 75 76 74 73 72 60 73 72 69 63 58
58 57 57 57 57 56 56 56 56 56 56 55 55 55 54 54 48 57 67 63 65 68 44 71 69 83 73 77 76 79 86 80 72 72 69 67 70 73 72 75 76 70 74 69 68 60 55
57 57 57 57 56 56 56 55 55 55 55 55 55 54 54 51 47 56 60 61 67 53 45 66 74 70 69 70 75 79 79 82 80 72 70 71 78 77 77 79 77 75 69 63 56 53 49
57 57 56 56 56 56 55 55 55 55 55 55 54 53 51 54 58 57 59 63 51 44 65 65 62 64 64 66 70 73 71 68 65 58 57 68 71 77 81 70 72 68 57 47 48 47 48
56 57 56 56 56 55 55 55 55 55 54 54 53 52 51 52 50 57 60 57 42 58 58 67 67 63 65 66 66 70 67 64 68 67 60 56 58 72 76 71 67 61 59 49 42 43 49
56 56 56 56 55 55 55 55 55 54 54 53 52 47 47 53 54 55 57 45 49 56 67 66 65 59 58 66 67 66 64 65 70 69 61 55 60 74 77 78 75 62 57 60 50 44 47
56 56 56 56 55 55 55 55 55 54 53 52 44 47 52 59 57 57 52 46 52 63 68 65 56 60 55 61 63 62 61 69 69 73 71 64 57 66 77 75 73 69 68 56 50 44 41
56 56 55 55 55 55 55 55 54 54 53 51 47 53 61 59 59 54 46 47 56 66 69 61 57 59 61 60 62 58 62 70 74 72 69 61 58 63 70 63 65 64 58 54 52 49 45
56 55 55 55 55 55 55 54 54 53 52 46 45 50 61 61 51 41 46 52 59 63 65 64 62 62 62 63 59 59 62 70 75 72 66 65 57 53 62 69 71 66 60 56 51 49 46
56 55 55 55 55 55 55 54 54 53 52 44 44 45 60 62 45 43 48 57 61 60 62 61 62 65 65 61 56 63 65 74 73 72 66 65 54 50 57 62 66 65 62 56 51 49 47
55 55 55 55 55 55 55 54 54 53 52 43 46 49 53 53 48 49 46 51 56 67 65 66 64 63 61 59 61 59 65 73 74 69 67 66 52 56 54 57 61 60 64 63 56 49 49
55 55 55 55 55 55 55 55 54 53 52 47 47 47 49 46 50 50 49 52 53 55 63 64 57 62 59 51 56 56 61 65 71 67 64 62 55 54 57 65 66 64 64 65 58 56 54
55 55 55 55 55 55 55 55 54 53 52 47 46 46 50 46 48 50 49 50 55 58 57 60 57 62 59 54 56 53 56 57 56 65 59 58 55 55 55 65 66 64 67 66 64 62 59
55 55 55 55 55 55 56 55 54 52 48 43 45 49 49 47 46 46 49 53 56 59 63 65 63 59 59 61 64 61 59 59 56 54 58 56 54 52 50 59 62 56 61 61 60 58 55
55 54 54 55 55 55 55 55 55 53 50 41 41 43 46 46 47 49 55 60 59 58 59 66 63 56 64 67 64 60 57 58 65 61 58 56 52 50 48 52 45 59 65 66 59 59 59
55 54 54 54 55 54 55 55 55 54 52 40 41 43 43 41 48 52 54 55 59 56 59 63 64 62 60 62 56 53 54 59 62 63 60 57 51 46 47 44 53 58 64 63 59 56 60
54 54 54 54 54 54 55 55 55 54 52 41 41 43 42 41 47 54 52 53 47 49 53 60 65 61 60 53 52 43 45 51 53 59 57 55 53 51 45 44 44 56 66 67 65 52 61
54 54 54 54 54 54 54 55 55 55 53 44 41 43 43 40 45 50 50 50 51 48 46 52 57 57 59 51 48 45 47 55 51 50 47 47 46 47 44 44 51 60 66 67 51 53 61
54 54 54 54 54 54 54 54 55 54 54 47 42 43 43 39 43 51 57 52 52 48 44 51 54 55 53 49 49 47 47 50 47 50 48 50 45 44 42 42 45 62 63 58 57 57 60
54 54 53 53 53 54 54 54 54 54 54 50 38 45 46 41 45 51 57 60 59 58 51 48 50 48 52 50 47 46 48 47 44 45 52 49 52 48 49 48 54 57 57 58 58 61 62

GFSGBSN_sfc_temp_036.txt.gz
Temp
60 60 60 60 60 59 59 59 59 59 59 59 59 59 60 60 60 61 61 61 61 60 61 61 62 62 62 69 78 81 80 79 79 81 80 79 77 74 70 72 76 71 76 78 78 81 79
60 60 60 60 59 59 59 59 59 59 59 59 59 59 59 59 60 60 60 60 60 60 60 61 62 62 64 65 85 83 81 77 80 79 80 78 78 78 74 73 71 76 78 78 78 79 79
60 59 60 60 59 59 59 59 59 59 59 59 58 58 59 59 59 59 59 59 59 60 61 62 63 66 65 75 84 82 79 77 79 79 79 82 83 78 75 73 77 74 73 76 76 78 76
59 60 59 59 59 58 58 58 58 58 58 58 58 58 58 58 58 59 59 58 59 61 62 63 63 63 66 82 80 82 78 79 80 78 79 84 81 75 72 77 74 70 67 63 76 76 78
59 59 59 59 59 58 58 58 58 58 58 58 58 58 58 57 58 58 57 57 60 63 64 64 59 63 69 83 79 81 82 80 81 79 79 91 79 69 73 66 63 63 59 61 69 75 74
59 59 59 59 58 58 58 58 57 57 57 57 57 57 57 57 57 56 56 58 61 62 64 68 73 63 73 76 82 83 80 83 80 79 78 76 67 64 63 62 56 58 59 61 63 72 72
58 59 58 58 58 58 57 57 57 57 57 57 57 57 56 56 56 56 53 63 64 63 63 64 65 69 75 83 83 81 82 82 78 75 63 67 63 58 61 63 66 64 61 61 66 74 68
58 58 58 58 57 57 57 57 57 57 57 57 56 56 56 56 56 55 51 63 62 61 58 69 70 72 77 79 74 79 84 76 72 64 66 64 57 67 69 69 66 63 60 62 68 72 68
58 58 58 58 57 57 57 56 56 56 56 56 56 56 55 55 55 56 55 63 63 59 54 66 70 70 73 77 75 76 81 74 69 65 63 60 66 74 72 68 67 61 59 61 64 67 66
57 57 57 57 57 56 56 56 56 56 56 56 56 55 55 53 58 52 61 61 59 60 51 61 64 72 74 77 72 83 83 79 70 68 67 64 72 72 68 68 69 57 70 70 67 62 57
57 57 57 57 56 56 56 56 56 56 56 55 55 55 54 54 47 56 64 57 58 65 42 68 66 77 69 74 74 75 82 76 70 69 67 65 67 66 67 70 72 68 71 67 65 57 54
57 57 57 56 56 56 56 55 55 55 55 55 55 54 54 50 45 54 57 57 64 52 44 63 68 65 64 67 72 74 75 77 76 69 67 68 75 72 73 75 74 73 67 61 54 52 49
57 57 56 56 56 56 55 55 55 55 55 54 54 53 51 53 58 54 56 62 50 43 61 61 59 61 58 60 66 70 68 65 62 55 54 64 67 72 76 68 68 66 56 47 47 46 47
56 57 56 56 55 55 55 55 55 55 54 54 52 52 51 52 50 53 59 57 40 55 54 63 63 59 61 65 63 67 65 61 63 61 55 54 56 68 75 70 65 58 57 49 42 42 48
56 56 56 55 55 55 55 55 55 54 54 53 51 47 47 52 52 53 57 44 48 52 63 62 62 56 55 62 65 62 61 61 66 66 58 53 58 72 74 73 72 60 56 57 47 42 46
56 56 56 55 55 55 55 55 54 54 53 52 43 48 52 55 55 56 52 45 50 59 63 60 52 56 52 57 58 59 59 65 66 69 67 61 56 64 72 72 70 66 65 55 49 44 41
56 56 55 55 55 55 55 54 54 54 52 51 46 52 58 53 55 54 45 44 53 63 63 58 54 55 58 56 58 54 60 68 70 66 67 58 59 62 64 61 61 61 56 51 50 47 44
55 55 55 55 55 55 55 54 54 53 52 45 45 49 58 57 50 39 45 49 57 59 61 60 59 59 58 59 56 56 61 65 71 68 65 63 57 54 61 66 68 63 59 55 50 47 43
55 55 55 55 55 55 55 54 54 52 51 44 44 44 57 58 44 42 46 53 57 57 58 57 58 63 60 56 53 59 62 70 69 68 64 63 52 49 56 59 63 63 59 53 50 48 45
55 55 55 55 55 55 55 54 54 53 52 43 46 47 51 50 45 45 44 49 52 63 61 62 60 59 56 54 54 56 60 68 69 65 67 67 51 53 51 57 60 58 61 59 54 50 48
55 55 55 55 55 55 55 55 54 53 52 45 45 43 45 45 46 44 46 50 51 52 58 58 54 59 56 49 53 55 59 63 68 65 61 61 56 52 55 62 63 64 63 62 57 55 55
55 55 55 55 55 55 55 55 54 52 51 45 44 44 45 43 46 47 45 49 53 54 54 55 54 61 59 56 58 54 55 54 56 63 57 56 52 55 54 63 65 64 64 63 62 60 58
55 55 55 55 55 55 55 55 54 52 48 41 41 44 45 46 47 48 48 53 54 53 60 62 62 56 56 60 61 58 58 57 58 57 59 57 54 53 49 58 61 56 58 59 57 57 57
55 54 54 55 55 55 55 55 54 53 49 44 39 40 42 43 47 50 54 56 57 55 54 62 59 54 59 65 62 58 57 56 60 58 57 54 51 49 49 51 45 57 62 64 61 59 58
54 54 54 54 55 55 55 55 55 53 52 40 39 40 40 40 48 53 54 55 57 54 54 58 62 59 56 57 54 52 51 56 58 56 55 55 51 47 48 44 51 59 62 60 59 58 60
54 54 54 54 54 54 55 55 55 54 52 41 40 40 40 39 46 53 51 53 48 48 52 56 61 59 56 51 50 42 45 48 50 52 54 56 54 52 45 45 45 56 64 67 64 52 61
54 54 54 54 54 54 55 55 55 54 52 42 40 40 40 37 43 47 49 50 50 47 47 49 54 55 54 47 45 44 46 51 49 47 47 48 47 48 46 46 52 59 64 65 52 54 60
54 54 54 53 54 54 54 54 54 54 54 44 40 41 41 36 41 49 55 52 51 46 45 51 52 53 52 47 46 45 47 49 48 47 46 49 48 47 45 43 45 58 61 57 58 57 60
54 54 53 53 53 54 54 54 54 54 53 48 38 42 43 39 43 47 54 59 58 56 50 48 50 50 51 48 45 45 46 45 42 44 50 48 50 48 50 49 53 56 56 59 58 60 61

GFSGBSN_sfc_temp_042.txt.gz
Temp
61 60 61 61 60 60 60 60 60 60 60 60 60 60 60 61 61 61 61 61 61 61 61 61 62 62 81 93 94 99 83 86 100 102 99 98 97 97 94 96 95 94 95 97 100 98 98
60 61 60 60 60 59 60 60 59 59 59 59 59 59 59 60 60 60 60 60 60 60 61 62 62 61 91 88 101 100 100 100 102 102 100 101 97 98 96 95 95 96 96 97 99 97 97
61 60 60 60 59 59 59 59 59 59 59 59 59 59 59 59 60 60 60 60 60 60 61 63 64 79 89 93 102 103 102 102 103 102 99 101 101 98 98 94 97 97 94 98 98 98 97
60 60 60 60 59 59 59 59 59 59 59 59 59 59 59 59 59 59 59 59 59 61 62 65 64 87 91 101 104 99 104 103 104 105 102 102 103 100 97 98 97 94 94 88 95 96 97
59 59 59 59 59 59 58 58 58 58 58 58 58 58 58 58 58 58 57 57 60 64 66 67 84 91 90 92 97 103 104 100 102 103 102 101 101 97 97 92 90 92 85 84 88 95 94
59 59 59 59 59 58 58 58 58 58 58 58 58 57 57 57 57 57 57 59 65 66 74 84 88 86 95 92 98 99 103 101 98 98 97 96 97 93 94 91 79 83 84 86 84 92 94
58 58 58 59 58 58 58 57 57 57 57 57 57 57 57 57 57 56 67 90 88 87 88 90 90 88 91 97 99 98 101 98 98 95 88 91 88 85 90 92 90 88 85 83 88 92 89
58 57 58 58 58 57 57 57 57 57 57 57 57 57 56 56 56 56 70 88 80 79 81 92 90 89 94 95 89 95 101 92 90 85 88 86 84 90 89 88 88 87 85 84 88 90 90
58 57 57 57 57 57 57 57 57 57 57 57 56 56 56 55 55 71 84 82 85 84 81 88 89 90 92 94 90 93 98 94 88 85 86 84 88 88 86 86 85 87 85 84 84 88 92
57 57 57 57 57 57 57 56 56 56 56 56 56 56 55 53 66 81 85 83 86 85 78 82 85 90 91 94 88 99 101 94 88 84 84 86 92 86 85 84 88 83 91 87 86 84 80
58 57 57 57 57 57 56 56 56 56 56 56 55 55 54 53 74 83 82 87 89 84 63 81 85 95 92 90 91 91 101 94 85 84 84 83 84 85 83 87 91 85 90 88 86 84 82
57 57 57 57 56 56 56 56 56 55 55 55 55 54 54 66 75 83 84 86 85 72 62 77 85 84 84 88 89 90 91 97 94 85 86 86 90 89 89 88 90 90 87 86 86 86 75
57 57 57 56 56 56 55 55 55 55 55 55 54 53 56 72 82 82 85 84 72 65 79 76 79 84 85 83 86 87 84 83 81 74 75 83 85 91 91 86 88 88 84 73 71 73 73
57 57 56 56 56 55 55 55 55 55 55 54 53 52 59 73 79 80 84 77 61 72 74 80 80 82 78 84 84 84 83 80 87 84 82 75 73 85 91 88 84 85 85 75 62 68 74
56 56 56 56 55 55 55 55 55 55 54 53 51 76 78 82 77 79 79 66 69 72 76 75 80 76 78 81 81 83 82 82 86 86 76 77 77 89 89 91 91 82 79 88 76 78 73
56 56 56 56 55 55 55 55 55 54 53 52 73 79 79 77 78 79 74 64 72 75 77 77 72 76 73 78 78 79 80 86 84 89 91 82 74 87 87 90 88 87 91 77 79 65 63
56 56 56 55 55 55 55 55 54 54 53 52 72 75 76 82 80 77 68 72 72 77 77 74 73 73 76 75 79 79 80 84 89 88 91 88 81 80 84 82 83 82 82 82 84 78 71
55 56 56 55 55 55 55 55 54 53 52 55 77 72 80 80 72 75 70 71 59 76 79 77 77 76 75 76 76 77 79 84 89 92 82 88 83 75 80 87 87 87 84 84 76 69 76
55 55 55 55 55 55 55 55 54 52 51 68 75 76 81 79 67 68 70 71 72 73 75 76 75 77 79 76 71 77 79 85 86 88 84 87 79 71 74 82 84 81 84 85 83 80 72
55 55 55 56 55 55 55 55 54 53 52 62 73 68 74 77 77 70 66 68 68 75 74 77 76 78 77 75 79 75 79 83 84 87 70 81 81 74 74 77 84 76 79 82 83 75 76
55 55 55 55 55 55 55 55 54 53 52 63 75 68 68 68 70 71 69 67 66 67 75 75 74 75 75 71 76 75 80 82 82 72 81 85 73 79 82 83 82 82 81 79 78 81 76
55 55 55 55 55 55 55 55 54 53 51 72 70 69 73 71 66 68 59 67 66 70 70 71 70 77 77 72 76 74 79 79 80 82 81 84 75 80 77 83 83 79 82 81 81 82 82
55 55 55 55 55 55 55 55 54 52 55 72 71 71 68 58 68 68 69 67 66 69 73 77 75 74 73 77 83 83 84 81 80 78 78 78 78 73 71 80 79 73 80 81 83 85 84
55 55 55 55 55 55 55 55 54 52 53 70 65 67 68 68 70 71 67 68 67 69 68 75 76 73 75 81 82 83 85 82 81 79 82 75 73 76 74 74 62 77 86 88 84 84 85
55 54 55 55 55 55 55 55 55 53 52 66 66 66 67 68 71 68 67 68 71 71 69 70 75 77 79 76 74 70 73 73 77 79 78 81 77 72 68 69 73 74 78 79 80 79 85
55 54 54 54 55 55 55 55 55 53 52 67 64 65 67 64 69 66 67 68 68 70 71 71 77 78 77 77 74 63 65 70 69 73 80 79 76 76 71 66 62 77 80 84 84 73 83
55 54 54 54 54 54 55 55 55 55 52 62 64 62 65 64 72 66 68 66 70 69 69 70 67 71 77 75 70 69 70 73 68 68 69 74 75 72 71 70 71 80 81 85 69 71 81
54 54 54 53 53 54 54 55 55 54 54 59 64 62 62 65 69 67 69 67 70 71 65 68 67 68 74 68 69 72 70 72 71 68 69 71 70 71 73 68 63 77 79 75 73 78 81
54 54 54 53 53 54 54 54 54 54 54 55 67 67 65 60 68 68 71 72 70 71 67 69 64 61 65 68 71 70 70 70 68 65 71 67 70 72 70 70 71 76 74 75 76 75 78

GFSGBSN_sfc_temp_045.txt.gz
Temp
61 61 61 61 60 60 60 60 60 60 60 60 61 61 61 61 61 61 61 62 61 61 61 62 62 63 87 95 99 101 86 86 103 108 106 104 101 101 96 101 100 98 99 101 103 103 102
61 61 61 61 60 60 60 60 60 60 60 60 60 60 60 60 61 61 61 61 61 61 61 62 63 62 92 91 108 109 108 108 109 108 107 106 104 105 100 99 98 101 100 101 103 102 102
61 61 61 60 60 60 60 60 60 60 59 59 59 59 59 60 60 60 60 60 60 60 61 63 65 84 96 97 109 111 110 109 109 109 105 107 107 103 104 98 104 102 96 100 102 101 100
60 60 60 60 60 59 59 59 59 59 59 59 59 59 59 59 59 59 59 59 60 61 63 66 67 92 94 108 112 107 111 109 111 111 108 108 109 105 102 106 100 96 98 91 99 99 101
59 60 60 60 59 59 59 59 59 59 59 58 58 58 58 58 58 58 58 58 60 64 66 69 86 96 94 92 103 111 111 105 108 109 109 107 106 102 103 94 91 95 83 79 92 100 98
59 59 59 59 59 59 58 58 58 58 58 58 58 58 58 57 58 57 57 58 68 67 74 92 97 91 99 97 104 106 111 107 103 104 101 100 100 95 96 93 81 86 88 88 87 95 97
59 59 59 59 59 58 58 58 58 58 58 58 58 57 57 57 57 57 67 98 91 87 94 94 96 97 97 104 106 103 108 103 103 99 91 98 91 87 92 95 95 93 90 88 92 96 93
59 59 58 59 58 58 58 58 57 57 57 57 57 57 57 57 56 56 69 93 89 88 85 100 99 99 101 102 95 100 108 96 95 89 95 92 86 95 98 95 93 91 88 88 93 95 94
58 58 58 58 58 57 57 57 57 57 57 57 57 56 56 55 56 69 92 90 97 96 86 95 99 98 100 102 95 98 102 99 93 89 91 87 92 96 92 91 88 90 88 88 87 92 96
58 58 58 57 57 57 57 57 57 57 57 56 56 56 55 53 66 93 91 94 99 96 79 87 90 96 99 99 93 105 106 99 93 88 91 91 97 90 89 88 91 84 95 92 89 87 81
58 58 57 57 57 57 57 56 56 56 56 56 56 55 55 53 78 89 91 98 99 94 65 90 91 102 102 94 97 97 106 100 90 90 90 87 90 89 86 89 94 88 95 91 90 87 86
58 57 57 57 57 57 56 56 56 56 56 55 55 55 54 73 81 93 96 97 93 75 64 83 92 89 90 93 95 97 97 102 100 91 92 91 96 95 93 95 95 97 91 90 90 88 77
57 57 57 57 56 56 56 56 56 56 55 55 54 54 57 79 87 94 95 90 74 68 86 82 85 90 90 88 90 91 88 87 85 77 79 87 89 95 96 89 94 92 86 75 73 74 73
57 57 57 56 56 56 56 56 56 55 55 54 53 52 64 83 92 91 89 80 64 79 82 88 87 89 84 90 89 90 88 84 90 89 85 79 77 89 95 91 87 87 87 77 66 70 75
57 57 57 56 56 56 55 55 55 55 54 54 51 79 85 90 90 89 82 69 72 80 85 82 87 81 84 88 88 88 86 86 90 91 80 81 80 95 95 96 94 87 81 92 80 82 77
56 57 56 56 56 56 55 55 55 55 54 53 73 87 88 90 90 86 77 66 80 84 84 84 76 84 79 84 83 85 84 90 90 94 95 88 77 91 93 95 95 90 94 80 82 66 66
56 56 56 56 56 56 55 55 55 54 54 52 74 81 86 92 90 81 71 76 82 86 84 81 81 81 82 82 84 84 84 90 93 93 95 92 84 86 90 85 85 86 84 86 88 82 72
56 56 56 56 56 56 55 55 55 53 52 54 82 76 88 90 75 79 75 81 60 81 85 84 82 82 81 83 81 83 83 88 96 95 87 92 86 78 83 93 95 93 88 87 78 73 80
56 56 56 56 56 56 55 55 54 53 52 69 79 82 89 87 72 76 80 77 79 80 81 81 80 84 84 80 75 82 85 92 92 92 88 91 82 74 77 87 90 85 89 89 88 84 74
56 56 56 56 56 56 56 55 55 54 53 63 78 73 79 81 84 76 76 73 74 82 81 83 81 84 80 78 82 79 83 88 91 92 74 85 84 77 75 79 87 81 85 88 85 78 78
56 56 55 55 56 56 56 55 55 54 53 64 80 77 78 72 76 77 76 75 73 73 80 82 78 79 78 74 77 78 84 87 89 78 87 88 75 81 84 87 88 86 84 85 82 84 79
56 56 55 55 55 56 56 55 55 54 52 72 73 75 81 81 73 73 64 72 72 76 77 75 74 80 82 75 78 77 82 84 83 89 85 89 76 80 79 86 87 82 86 86 86 87 85
56 55 55 55 55 56 56 56 55 53 54 81 82 81 77 66 74 73 75 73 73 76 78 80 81 79 78 81 86 88 89 87 86 82 82 82 79 76 72 83 83 76 83 85 86 88 88
56 55 55 55 55 56 56 56 55 53 52 74 75 75 74 72 76 77 74 74 73 74 73 81 81 76 83 87 88 88 88 88 87 86 88 79 76 78 74 77 65 83 93 92 87 88 91
55 55 55 55 55 55 56 56 55 54 53 73 77 75 75 72 79 75 74 74 76 76 74 76 80 84 85 81 75 72 75 76 80 86 84 86 80 75 71 72 77 81 86 87 85 82 91
55 55 55 55 55 55 55 56 56 55 53 67 73 74 74 72 73 74 73 74 73 75 76 78 83 85 83 79 75 64 65 71 71 77 86 85 81 77 75 67 63 79 90 95 93 76 89
55 55 55 55 55 55 55 56 56 55 54 61 74 72 73 71 77 74 72 70 76 75 74 76 75 78 83 76 73 71 71 78 70 70 72 75 75 72 73 71 75 76 88 91 72 73 87
55 55 55 55 55 55 55 55 55 55 55 59 72 72 70 72 76 75 76 71 75 75 70 73 75 76 78 71 73 73 72 76 75 71 72 73 71 72 75 68 60 85 84 77 78 84 88
55 55 55 54 55 54 55 55 55 55 54 55 73 77 75 69 73 77 78 79 76 75 72 75 71 70 73 73 74 75 70 76 71 68 77 71 73 68 70 66 75 81 78 81 83 83 86

GFSGBSN_sfc_temp_048.txt.gz
Temp
61 61 61 61 60 60 60 60 60 60 60 60 60 60 61 61 61 61 62 62 61 61 61 62 62 63 86 92 97 100 83 86 100 101 102 103 100 99 93 98 101 97 98 102 104 103 102
61 61 61 61 60 60 60 60 60 60 60 60 60 60 60 60 60 60 61 61 61 61 61 62 63 62 89 88 111 108 108 106 104 106 105 106 102 105 99 98 97 101 100 101 103 103 102
61 60 60 60 60 60 60 60 60 60 60 60 59 59 59 60 60 60 60 60 60 61 62 63 64 81 93 95 112 113 110 109 112 109 105 109 109 102 102 96 104 102 94 99 99 102 99
60 60 60 60 60 60 59 59 59 59 59 59 59 59 59 59 59 59 59 59 60 61 63 65 67 86 91 111 114 111 111 109 112 112 109 111 109 103 100 103 100 95 95 82 87 90 101
60 60 60 60 60 59 59 59 59 59 59 58 58 58 58 58 58 58 58 58 61 64 66 68 82 90 92 96 103 110 112 106 110 110 110 110 105 98 100 92 88 92 83 80 85 95 98
59 59 60 60 59 59 58 58 58 58 58 58 58 58 58 58 58 57 57 60 71 69 76 89 94 89 98 98 107 108 112 109 103 104 102 100 97 92 93 89 77 78 71 80 74 91 97
59 59 59 59 59 58 58 58 58 58 58 58 58 57 57 57 57 57 65 90 90 85 90 92 95 94 100 105 108 104 109 105 103 99 89 96 89 84 89 92 93 91 78 73 77 88 92
59 59 58 59 58 58 58 58 57 58 58 57 57 57 57 57 56 57 64 87 91 93 83 98 100 101 105 105 95 101 109 96 94 87 93 90 85 93 96 96 93 91 87 83 89 96 93
58 58 58 58 58 58 57 57 57 57 57 57 57 57 56 56 56 68 88 94 101 100 84 92 99 99 100 103 94 98 103 98 92 88 89 86 91 98 94 91 89 88 86 86 87 93 95
58 58 58 58 58 57 57 57 57 57 57 57 56 56 55 53 65 91 92 98 102 100 76 85 93 98 102 102 93 105 107 99 93 88 90 89 96 93 91 88 90 82 93 92 89 86 78
58 58 58 58 57 57 57 57 57 57 56 56 56 56 55 54 72 87 94 102 101 95 61 92 94 108 103 94 98 97 107 100 89 90 91 86 90 89 87 89 93 87 95 91 90 85 84
58 58 58 57 57 57 57 56 56 56 56 56 55 55 54 74 73 88 99 100 95 73 62 85 93 90 90 94 94 100 98 102 100 91 93 90 99 95 93 95 95 96 91 89 89 85 73
57 57 57 57 57 57 56 56 56 56 56 55 55 54 55 75 85 98 97 90 71 65 86 82 86 91 89 88 90 93 89 87 83 76 78 87 89 95 96 89 94 91 84 72 69 71 70
57 57 57 57 57 56 56 56 56 56 55 55 53 53 64 80 93 95 90 78 61 76 80 92 90 91 85 89 89 90 87 83 89 87 82 77 75 89 95 89 86 86 84 74 63 66 64
57 57 57 57 56 56 56 56 56 55 55 54 52 79 80 89 89 91 80 66 69 78 88 87 88 82 83 88 89 87 86 85 89 90 78 78 80 95 95 95 93 85 79 89 78 80 73
57 57 57 57 56 56 56 56 56 55 55 53 64 80 87 95 94 86 74 63 77 88 88 87 76 84 78 83 84 85 84 90 89 94 95 86 76 90 94 96 95 89 94 78 80 64 63
57 57 56 56 56 56 56 56 55 55 54 52 69 77 89 96 92 79 68 73 80 89 88 81 79 79 81 82 86 84 84 90 94 93 96 91 83 83 91 85 84 86 83 84 85 80 62
57 57 56 56 56 56 56 55 55 54 52 56 78 73 91 93 73 76 72 79 76 87 88 84 84 82 81 84 82 83 83 89 97 96 87 91 85 76 81 93 95 91 86 85 74 71 77
57 56 56 56 56 56 56 55 55 53 53 64 72 82 90 89 69 74 79 81 85 83 83 82 80 84 86 81 75 82 85 93 95 93 85 90 81 72 75 85 91 85 88 88 85 81 72
56 56 56 56 56 56 56 55 55 54 53 58 73 73 80 81 81 75 75 77 77 84 82 84 83 85 82 79 83 78 82 91 92 92 78 84 82 76 71 76 85 79 84 87 84 75 76
56 56 56 56 56 56 56 56 55 55 54 58 75 75 80 71 75 76 78 78 76 75 82 83 78 80 78 73 76 77 83 86 91 83 88 86 74 79 82 85 86 84 83 85 81 82 76
57 56 56 56 56 56 56 56 55 54 52 67 72 73 77 78 77 76 68 72 73 77 78 76 74 79 80 74 76 75 81 82 81 88 85 87 74 78 75 83 84 82 82 67 82 86 84
57 57 56 56 56 56 56 56 55 54 55 77 81 82 76 69 75 73 74 74 75 79 81 82 80 79 77 81 86 88 89 87 85 81 79 79 77 73 68 80 80 74 82 85 86 88 87
56 57 56 56 56 56 56 56 55 54 53 66 77 75 72 69 75 76 79 78 75 76 73 80 82 78 83 88 88 87 88 86 85 85 87 76 75 75 69 74 62 80 92 92 87 89 86
56 56 56 56 56 56 56 56 56 55 53 65 76 74 72 69 76 78 76 76 78 77 75 77 82 84 86 81 72 68 71 73 77 83 84 85 77 71 66 68 75 81 87 87 84 83 84
56 56 56 56 56 56 56 56 56 55 53 65 75 75 73 69 72 77 75 76 73 75 76 79 86 87 83 76 71 60 60 67 67 74 84 84 78 73 70 65 62 79 83 80 86 73 69
56 56 56 56 56 56 56 56 56 56 54 59 71 75 72 69 78 76 73 71 78 75 74 75 76 77 83 73 68 66 67 76 67 66 68 73 73 69 69 67 74 76 78 83 62 62 74
55 55 55 56 56 55 55 56 56 56 55 58 71 75 70 70 77 77 79 73 75 75 68 73 74 76 76 69 70 71 69 71 71 75 72 71 69 69 71 67 63 74 77 62 59 62 82
55 55 55 55 55 55 55 55 56 55 55 55 69 80 78 69 74 81 81 82 79 78 73 74 72 72 73 69 69 73 70 70 67 63 78 67 65 51 70 68 72 80 73 80 80 81 83